Temperature
18 16 15 15 14 14 14 13 13 12 12 12 11 11 11 11 11 10 10 10 10 10 10 11 11 11 11 11 11 11 11 11 11 11 11 11 12 12 13 13 13 13 14
19 18 16 15 15 14 13 13 13 12 12 12 11 11 11 11 11 10 10 10 10 10 10 10 10 11 11 11 11 11 11 11 11 12 12 11 11 11 11 12 12 12 12
19 18 17 16 15 14 13 13 13 12 12 12 11 11 11 11 10 10 10 10 10 10 10 10 11 11 11 11 11 11 11 11 11 12 12 11 10 10 11 11 11 11 12
19 18 17 16 15 14 14 13 13 12 12 11 11 11 11 11 10 10 10 10 10 11 11 11 11 11 11 11 11 11 11 11 12 12 11 11 11 10 10 10 10 11 11
19 18 18 16 15 14 14 13 12 12 11 11 11 11 11 10 10 10 11 11 11 11 11 11 11 12 12 12 11 11 11 11 12 12 11 11 11 10 10 10 10 10 10
19 18 18 17 15 14 14 13 12 12 11 11 11 11 10 10 10 11 11 11 11 11 11 12 12 12 12 12 11 11 11 11 12 11 11 11 11 10 10 10 10 10 10
19 18 18 17 16 14 13 13 12 12 11 11 11 10 10 10 11 11 11 11 11 11 11 11 12 12 12 12 11 11 11 11 11 11 11 11 11 10 10 11 11 11 11
19 18 17 16 15 14 13 12 12 11 11 11 10 10 10 10 11 11 11 11 11 11 11 11 11 11 12 12 11 11 11 11 11 11 11 11 11 10 11 11 11 11 11
18 18 17 16 15 14 13 12 12 11 11 11 10 10 10 10 10 10 11 11 11 11 11 11 11 11 11 11 11 11 11 11 11 11 11 11 11 11 11 11 11 11 11
17 17 16 16 15 14 12 12 11 11 11 10 10 10 10 10 10 10 10 10 11 11 11 11 11 11 11 11 11 11 11 11 11 11 11 11 11 11 10 10 11 11 11
16 16 16 15 14 13 12 12 11 11 11 10 10 10 10 10 10 10 10 10 10 10 10 10 10 10 10 11 11 11 10 10 10 10 10 10 10 10 10 10 10 10 10
16 16 15 14 14 13 12 11 11 11 10 10 10 10 10 10 9 9 9 9 9 10 10 10 10 10 10 10 10 10 10 10 10 10 10 10 10 10 9 9 9 9 9
17 16 15 14 14 13 12 11 11 11 10 10 10 10 9 9 9 9 9 9 9 9 9 9 9 10 10 10 10 10 10 10 9 9 9 9 9 9 9 9 9 9 9
16 16 15 14 13 13 12 12 11 11 10 10 10 9 9 9 9 9 9 9 8 8 9 9 9 9 9 9 9 9 9 9 9 9 9 9 9 9 9 9 8 8 8
16 16 15 14 13 13 12 12 11 11 10 10 10 9 9 9 9 9 8 8 8 8 8 8 8 8 8 8 8 8 8 8 8 8 8 8 8 8 8 8 8 8 8
16 16 15 14 13 13 12 12 11 11 10 10 10 9 9 9 9 9 8 8 8 8 8 8 8 8 7 7 7 7 7 7 7 7 7 8 8 8 8 8 8 8 7
16 16 15 14 13 13 12 12 11 11 10 10 10 9 9 9 9 9 8 8 8 8 8 7 7 7 7 7 7 7 7 7 7 7 7 8 8 8 8 8 8 7 7
16 15 14 14 13 12 12 11 11 11 10 10 10 9 9 9 9 9 8 8 8 8 8 7 7 7 7 7 7 7 7 7 7 7 7 8 8 8 8 8 7 7 7
16 15 14 13 13 12 12 11 11 10 10 10 9 9 9 9 9 9 8 8 8 8 7 7 7 7 7 7 7 7 7 7 7 7 8 8 8 8 8 8 7 7 7
15 14 14 13 12 12 11 11 10 10 10 10 9 9 9 9 9 8 8 8 8 8 7 7 7 7 6 6 6 6 6 6 7 7 8 8 8 7 7 7 7 7 7
14 14 13 13 12 12 11 11 10 10 10 10 9 9 9 9 9 8 8 8 8 7 7 7 7 7 6 6 6 6 6 7 7 7 7 7 7 7 6 6 6 6 6
14 14 13 13 12 12 11 11 10 10 10 10 9 9 9 9 9 8 8 8 8 7 7 7 6 6 6 6 5 4 4 5 5 5 6 6 6 6 6 6 5 5 5
14 13 13 13 12 11 11 11 10 10 10 9 9 9 9 9 9 8 8 8 7 7 7 6 6 6 5 5 5 4 3 3 3 4 4 5 5 5 5 5 5 5 5
13 13 13 12 12 12 11 11 11 10 10 10 10 9 9 9 8 8 8 7 7 7 6 6 6 5 5 5 5 4 4 3 2 2 3 3 3 4 4 4 4 4 4
13 13 12 12 12 12 11 11 11 11 10 10 10 9 9 8 8 8 7 7 7 6 6 6 5 5 5 5 4 4 4 3 3 2 1 2 3 3 3 3 3 4 4
12 12 12 12 12 12 11 11 11 10 10 10 9 9 9 8 8 7 7 7 6 6 6 5 5 5 5 4 4 4 3 2 2 2 1 1 1 2 2 2 3 3 3
Wind_Speed
7 17 21 20 18 17 16 15 14 14 14 13 13 13 14 14 14 14 13 14 14 14 14 14 15 15 15 15 15 16 16 17 17 18 18 18 18 18 17 17 17 16 17
12 23 23 22 20 18 17 16 15 14 14 13 13 13 13 13 13 13 13 13 13 14 14 14 14 14 14 14 14 14 15 15 16 16 17 16 16 16 16 16 16 15 16
16 24 25 23 21 19 18 17 16 15 14 14 13 12 12 13 13 13 12 12 12 12 13 13 13 13 13 13 12 13 14 15 14 15 15 16 14 15 15 15 15 15 15
22 23 23 24 22 20 19 18 16 15 14 14 13 12 12 12 12 12 12 11 11 11 11 11 12 12 11 11 11 11 12 13 13 14 15 15 13 13 13 13 13 13 13
20 23 24 25 23 21 20 18 17 15 14 14 13 12 11 11 11 11 11 10 10 10 10 10 10 10 10 10 10 10 11 12 13 13 14 14 12 11 12 12 12 12 12
16 22 24 25 23 22 20 19 17 16 15 14 13 12 11 11 10 10 9 9 9 9 9 9 9 9 9 8 8 8 9 11 11 11 11 11 10 9 10 10 10 10 10
14 21 24 26 24 22 21 19 18 16 15 14 13 12 11 11 10 9 9 8 8 7 7 7 7 7 7 7 7 7 7 8 9 8 7 7 7 7 8 8 8 8 8
15 20 23 25 24 23 21 20 19 17 16 15 13 12 12 11 10 9 8 7 7 6 6 5 5 5 5 5 5 5 6 6 6 5 4 4 4 5 5 5 5 5 5
16 17 19 22 23 23 22 20 19 18 17 16 14 13 12 11 9 9 8 7 6 5 4 3 3 3 2 3 3 3 4 5 5 4 3 3 3 4 4 3 4 4 4
11 12 15 18 20 20 21 21 20 19 17 16 15 14 13 12 10 9 8 7 6 5 3 2 1 1 1 1 2 3 4 4 4 4 4 5 5 5 5 5 5 5 5
11 11 13 15 17 18 19 20 20 19 18 17 16 15 14 12 11 10 10 8 7 6 4 3 3 3 3 4 5 5 5 5 6 6 7 7 8 8 9 8 8 8 8
13 13 11 12 15 17 17 18 17 17 17 16 15 15 14 13 12 11 12 11 9 8 6 6 5 6 5 5 7 8 7 8 8 9 10 10 11 11 12 11 11 11 12
14 15 13 12 16 16 13 14 13 14 15 15 16 16 15 13 11 11 11 11 11 9 8 7 7 6 7 8 9 10 11 11 11 12 12 12 13 14 15 15 15 15 15
12 15 14 13 13 15 14 13 13 12 12 12 14 16 14 10 9 10 10 11 11 11 10 9 9 10 10 11 12 12 13 13 14 14 15 15 15 16 17 18 18 18 18
12 13 14 13 12 13 12 11 12 12 12 14 14 16 15 11 9 10 10 11 12 12 11 10 10 10 10 11 12 12 12 14 16 16 16 17 18 19 20 20 20 20 20
11 12 13 14 12 13 9 8 10 12 13 13 13 15 15 13 11 9 9 9 11 12 12 11 11 10 9 9 9 10 12 14 15 16 18 19 20 21 22 23 23 23 22
10 11 12 13 11 11 10 10 10 12 12 11 12 14 14 13 12 10 8 7 10 12 11 9 9 8 6 6 6 9 10 12 13 15 17 18 20 21 23 24 25 24 24
8 9 10 11 11 10 9 9 9 10 10 10 11 11 13 13 12 9 7 7 9 9 8 5 4 4 5 5 6 6 8 10 12 15 17 18 19 19 21 24 25 25 25
8 9 9 10 11 10 8 8 8 9 8 9 9 9 10 10 10 8 7 8 8 6 5 4 4 4 5 6 6 6 5 6 9 13 14 17 18 19 20 22 24 25 25
7 8 9 9 10 9 6 5 5 4 4 5 6 6 7 7 8 7 6 7 6 3 3 3 4 4 4 5 6 6 6 7 7 8 11 14 16 17 18 19 20 20 23
7 8 8 9 8 8 5 5 4 3 2 2 3 4 4 5 5 5 4 4 4 3 4 4 3 4 3 2 3 5 6 7 7 7 7 7 10 14 15 16 16 17 18
6 7 8 8 8 7 5 4 3 4 2 2 1 1 1 2 3 4 4 3 3 3 3 3 3 2 3 2 2 4 5 5 4 4 5 6 7 9 9 12 13 14 17
6 7 7 8 8 7 7 5 5 4 3 2 1 1 2 3 3 3 3 3 3 3 3 4 3 4 4 3 3 3 4 4 4 4 5 5 5 5 5 9 12 15 17
5 6 8 8 8 7 7 7 6 4 3 2 1 1 2 2 2 3 3 3 2 1 3 3 3 3 4 4 3 4 6 5 5 5 3 4 6 7 8 7 10 15 18
6 7 7 8 7 6 7 7 7 4 3 1 1 0 1 2 2 2 2 1 1 2 3 3 3 4 3 4 4 4 5 5 7 7 9 6 5 6 7 7 9 13 17
6 6 7 8 6 6 7 7 7 7 5 3 1 0 1 2 2 2 2 1 2 2 3 4 4 5 5 5 5 5 5 5 5 6 9 10 9 7 7 7 8 10 16
Wind_Direction
190 181 172 162 158 152 147 141 134 129 122 118 113 107 104 102 97 92 88 83 79 76 74 73 71 69 69 68 69 68 65 63 61 58 58 62 63 63 62 61 56 52 54
164 173 170 164 160 156 151 143 136 132 127 122 116 111 107 105 99 95 89 84 80 78 75 74 72 70 70 69 69 69 66 66 65 61 53 49 60 62 61 59 59 57 56
155 168 168 166 163 158 152 146 141 136 131 126 122 117 111 108 102 97 93 87 82 80 78 75 74 73 71 70 70 69 65 65 66 63 50 36 46 62 61 59 58 57 57
157 166 166 167 165 160 155 151 147 144 138 133 129 124 117 111 106 101 97 92 88 84 82 79 77 75 73 71 70 68 66 65 67 63 49 37 37 59 60 59 58 57 56
159 164 167 168 166 163 159 156 153 151 146 140 136 131 126 119 112 106 101 97 94 90 87 84 81 79 77 73 70 68 67 66 68 64 53 40 32 56 59 57 56 55 55
158 163 168 168 168 166 162 160 158 156 152 147 144 140 135 128 120 114 109 105 101 97 92 89 85 80 77 75 72 67 66 67 68 65 55 41 29 52 57 54 52 50 49
158 164 170 170 170 168 166 165 163 161 158 154 152 149 142 137 131 127 122 116 110 104 97 92 88 83 77 72 68 60 58 63 67 65 57 38 29 46 51 48 43 43 43
160 166 171 172 172 171 170 169 167 166 164 161 159 158 152 147 144 141 136 130 125 117 108 99 91 82 72 64 55 47 42 47 55 54 41 17 20 28 34 35 31 29 30
162 166 171 174 174 174 173 172 171 171 170 168 167 166 161 157 158 156 153 149 144 136 126 117 104 88 70 49 33 21 18 25 34 16 348 321 327 340 350 353 351 350 353
162 167 170 173 173 175 176 175 175 176 176 174 173 171 169 168 169 169 169 170 169 167 166 170 177 197 311 324 325 330 339 348 347 333 306 288 290 303 308 307 305 307 309
167 171 171 171 173 174 175 178 178 179 181 179 177 175 172 173 175 177 178 188 193 197 204 219 242 260 272 282 291 296 301 301 303 301 288 279 282 290 293 292 290 288 288
176 178 175 174 173 174 178 181 181 180 184 182 180 177 174 177 183 187 190 199 205 211 222 237 253 265 271 269 278 286 281 274 275 278 277 275 282 287 289 288 285 284 282
178 179 181 177 175 175 177 177 179 180 182 182 181 180 180 183 189 194 198 209 215 218 226 243 258 264 263 262 267 272 269 263 263 268 270 274 281 287 288 287 284 282 280
175 183 182 179 177 177 176 177 178 178 181 183 185 186 183 182 188 193 200 206 209 215 222 234 244 253 257 259 260 260 260 257 258 262 266 270 278 284 286 286 285 283 280
182 182 181 179 178 177 174 177 179 182 186 189 191 193 191 189 193 196 204 207 212 218 224 232 239 248 253 258 258 253 252 253 256 259 262 268 274 280 282 283 282 282 281
184 179 176 178 177 173 173 173 178 182 187 191 193 197 197 197 198 199 204 208 215 220 226 231 234 238 245 252 257 255 254 257 258 260 263 266 272 277 280 281 281 282 282
179 171 171 174 171 168 167 169 173 178 182 186 193 199 199 200 200 199 204 211 221 226 229 233 239 240 246 250 255 260 261 261 261 263 266 267 268 272 276 279 281 281 282
159 157 164 168 165 165 164 164 165 172 177 184 191 197 202 206 207 202 206 220 227 226 225 226 230 238 248 251 256 260 262 265 266 267 268 268 266 267 271 276 279 281 282
148 148 150 153 159 160 154 153 155 161 169 181 188 195 204 209 213 211 216 228 230 225 227 234 238 235 252 259 264 267 263 261 265 269 267 268 268 266 266 272 277 279 280
125 132 136 141 149 146 138 132 130 133 144 161 176 192 201 210 216 217 223 233 231 223 235 240 250 249 251 263 279 279 270 263 261 261 265 272 273 272 271 271 273 276 280
110 119 128 133 142 141 139 140 136 137 134 133 163 184 196 208 216 215 223 231 224 225 236 240 248 261 265 261 293 296 280 267 265 263 265 271 275 279 280 277 274 273 276
122 122 123 129 136 139 138 134 129 127 124 123 120 139 219 231 236 226 223 230 231 236 257 254 241 261 267 234 247 303 310 315 312 275 268 263 268 282 286 289 285 279 276
129 136 133 129 128 127 125 114 96 80 68 61 39 330 304 280 263 251 243 238 239 227 250 258 246 242 264 264 205 226 278 284 303 273 262 262 273 279 282 291 291 289 284
146 135 128 126 122 123 124 128 132 137 154 190 202 256 307 313 294 278 263 252 247 240 256 262 249 237 240 265 260 229 234 252 279 298 280 277 274 273 273 278 280 282 282
141 134 129 122 120 123 123 131 131 133 152 151 114 9 336 342 341 327 301 279 271 263 264 271 273 256 235 243 249 252 255 256 239 263 286 280 278 264 264 264 269 273 275
136 132 132 127 125 126 125 129 138 146 149 137 125 105 342 338 341 342 332 312 290 279 272 271 267 264 254 252 252 246 246 252 255 255 275 286 283 272 261 257 260 263 267
Height
1547 1548 1550 1552 1553 1555 1556 1557 1557 1558 1558 1558 1558 1558 1558 1558 1558 1558 1558 1558 1558 1557 1557 1557 1556 1556 1556 1555 1555 1555 1555 1554 1554 1554 1554 1554 1553 1553 1553 1553 1553 1553 1553
1546 1547 1549 1551 1553 1554 1556 1557 1557 1558 1558 1559 1559 1559 1559 1559 1559 1559 1559 1558 1558 1558 1558 1557 1557 1557 1556 1556 1556 1556 1555 1555 1555 1554 1554 1554 1554 1554 1553 1553 1553 1553 1553
1546 1547 1549 1551 1553 1554 1555 1556 1557 1558 1559 1559 1559 1560 1560 1560 1560 1559 1559 1559 1559 1558 1558 1558 1557 1557 1557 1557 1557 1557 1556 1556 1555 1555 1555 1555 1555 1555 1554 1554 1554 1553 1553
1545 1546 1548 1550 1552 1554 1555 1556 1557 1558 1559 1559 1560 1560 1560 1560 1560 1560 1560 1559 1559 1559 1559 1558 1558 1558 1558 1557 1557 1557 1557 1557 1556 1557 1556 1556 1556 1556 1555 1555 1554 1554 1553
1545 1546 1548 1550 1552 1553 1555 1556 1557 1558 1559 1560 1560 1561 1561 1561 1561 1560 1560 1560 1560 1559 1559 1559 1559 1558 1558 1558 1558 1558 1558 1558 1558 1558 1557 1557 1557 1557 1556 1555 1555 1554 1554
1544 1546 1547 1549 1551 1553 1554 1556 1557 1558 1559 1560 1560 1561 1561 1561 1561 1561 1561 1561 1560 1560 1560 1560 1560 1559 1559 1559 1559 1559 1559 1559 1559 1559 1559 1558 1558 1558 1557 1556 1556 1555 1555
1544 1545 1547 1549 1550 1552 1554 1555 1556 1558 1559 1560 1560 1561 1561 1562 1561 1561 1561 1561 1561 1561 1561 1561 1561 1560 1560 1560 1560 1560 1560 1560 1560 1560 1560 1559 1559 1558 1558 1557 1556 1556 1555
1544 1545 1546 1548 1550 1551 1553 1554 1556 1557 1559 1560 1560 1561 1562 1562 1562 1562 1562 1562 1562 1562 1562 1562 1562 1561 1561 1561 1561 1561 1561 1560 1560 1560 1560 1560 1559 1559 1558 1558 1557 1557 1556
1544 1544 1546 1547 1549 1551 1552 1554 1555 1557 1558 1559 1560 1561 1562 1562 1562 1562 1562 1562 1562 1562 1562 1562 1562 1562 1562 1562 1562 1562 1561 1561 1561 1561 1560 1560 1560 1559 1558 1558 1557 1557 1556
1543 1544 1545 1546 1548 1550 1552 1553 1555 1556 1558 1559 1560 1561 1562 1562 1562 1562 1563 1563 1563 1563 1563 1563 1562 1562 1562 1562 1562 1562 1561 1561 1561 1561 1561 1560 1559 1559 1558 1558 1557 1556 1556
1541 1542 1544 1545 1547 1549 1551 1553 1554 1556 1557 1559 1560 1560 1561 1562 1562 1562 1562 1563 1563 1563 1563 1562 1562 1562 1562 1562 1562 1562 1561 1561 1561 1561 1560 1560 1559 1558 1558 1557 1556 1556 1555
1538 1540 1542 1544 1545 1547 1549 1551 1553 1555 1556 1558 1559 1560 1560 1561 1561 1562 1562 1562 1562 1562 1562 1562 1562 1562 1562 1562 1561 1561 1561 1560 1560 1560 1559 1559 1558 1557 1557 1556 1555 1554 1554
1536 1538 1540 1542 1544 1546 1548 1550 1552 1554 1555 1557 1558 1559 1559 1560 1560 1561 1561 1561 1561 1561 1561 1561 1561 1561 1561 1560 1560 1560 1559 1559 1558 1558 1557 1557 1556 1555 1555 1554 1553 1552 1552
1533 1535 1537 1540 1542 1544 1546 1548 1550 1552 1554 1555 1557 1558 1558 1559 1559 1560 1560 1560 1560 1560 1560 1560 1560 1559 1559 1558 1558 1557 1557 1556 1556 1555 1555 1554 1553 1552 1552 1551 1550 1550 1549
1531 1532 1535 1537 1540 1542 1545 1547 1549 1551 1553 1554 1555 1556 1557 1557 1558 1558 1558 1558 1559 1559 1558 1558 1558 1557 1557 1556 1555 1554 1554 1553 1552 1552 1551 1551 1550 1549 1548 1547 1546 1546 1545
1528 1530 1532 1535 1538 1540 1543 1545 1547 1549 1551 1553 1554 1555 1555 1556 1556 1557 1557 1557 1557 1557 1556 1556 1555 1554 1554 1553 1552 1552 1551 1550 1549 1548 1547 1546 1545 1544 1543 1543 1542 1541 1540
1525 1527 1530 1533 1536 1538 1541 1544 1546 1548 1549 1551 1552 1553 1554 1554 1555 1555 1555 1555 1555 1555 1554 1553 1553 1552 1551 1550 1549 1548 1547 1546 1545 1544 1543 1541 1540 1539 1538 1537 1536 1535 1535
1523 1525 1528 1531 1533 1536 1539 1542 1544 1546 1548 1549 1550 1551 1552 1552 1553 1553 1553 1553 1552 1552 1551 1550 1550 1549 1547 1546 1545 1544 1543 1541 1540 1539 1537 1536 1535 1534 1533 1531 1530 1529 1528
1521 1523 1526 1528 1531 1535 1538 1540 1542 1544 1546 1547 1548 1549 1550 1550 1550 1550 1550 1550 1549 1549 1548 1547 1546 1545 1543 1542 1540 1538 1537 1536 1534 1533 1532 1531 1529 1528 1527 1526 1525 1524 1523
1519 1522 1524 1527 1530 1533 1536 1539 1541 1542 1544 1545 1546 1547 1547 1547 1547 1547 1547 1546 1546 1545 1544 1543 1542 1541 1539 1537 1535 1533 1531 1529 1528 1527 1526 1525 1524 1523 1522 1520 1519 1518 1517
1518 1520 1523 1525 1528 1531 1534 1536 1538 1540 1542 1543 1544 1544 1545 1545 1544 1544 1543 1543 1542 1541 1540 1539 1538 1536 1535 1533 1530 1527 1524 1523 1521 1521 1520 1520 1519 1518 1516 1515 1514 1513 1511
1518 1520 1522 1524 1527 1529 1532 1535 1537 1539 1540 1541 1542 1542 1542 1542 1541 1541 1540 1539 1538 1537 1536 1535 1534 1532 1530 1530 1527 1523 1518 1515 1514 1514 1514 1513 1513 1512 1511 1510 1508 1507 1505
1517 1519 1521 1523 1526 1528 1531 1533 1535 1537 1538 1539 1539 1539 1539 1538 1538 1537 1536 1536 1535 1533 1532 1531 1530 1528 1526 1525 1524 1523 1518 1512 1509 1506 1506 1506 1506 1505 1504 1503 1502 1500 1498
1517 1519 1521 1523 1525 1527 1529 1531 1533 1534 1535 1536 1536 1536 1536 1535 1535 1534 1533 1532 1531 1530 1528 1527 1525 1524 1522 1520 1519 1518 1516 1513 1508 1500 1499 1499 1499 1498 1497 1495 1494 1492 1490
1516 1518 1520 1522 1524 1526 1528 1530 1531 1532 1533 1534 1534 1534 1533 1533 1532 1531 1530 1529 1527 1526 1524 1523 1521 1520 1518 1516 1514 1512 1510 1508 1505 1500 1492 1490 1490 1489 1489 1487 1485 1483 1482
1515 1517 1520 1521 1523 1525 1527 1528 1529 1530 1531 1531 1531 1531 1530 1530 1529 1528 1526 1525 1524 1522 1520 1519 1517 1515 1513 1511 1509 1507 1504 1502 1498 1495 1488 1483 1480 1479 1479 1478 1476 1475 1473